User: anonymous   Login
Location: ?astrovice
(49.6513°N, 14.9287°E)
Time: 05:08:05
(UTC+00:00)
Language:

BEESAT - Orbit

View from above orbital plane
View from above orbital plane
View from above satellite
View from above satellite

Ground track
Ground track

The orbit data is extracted from the following two-line orbital elements,

1 35933U 09051C   21298.14897911  .00000179  00000-0  51125-4 0  9995
2 35933  98.5865 143.9627 0006827  66.5366 293.6549 14.56648929641916
Epoch (UTC): 25 October 2021 03:34:31
Eccentricity: 0.0006827
inclination: 98.5865°
perigee height: 699 km
apogee height: 709 km
right ascension of ascending node: 143.9627°
argument of perigee: 66.5366°
revolutions per day: 14.56648929
mean anomaly at epoch: 293.6549°
orbit number at epoch: 64191

The dashed part of the orbit path shows where the satellite is in the earth's shadow,  

DLR